Time,TemperatureF,DewpointF,PressureIn,WindDirection,WindDirectionDegrees,WindSpeedMPH,WindSpeedGustMPH,Humidity,HourlyPrecipIn,Conditions,Clouds,dailyrainin,SoftwareType,DateUTC
2013-07-14 00:01:00,50.0,47.0,-100.00,NE,40,0.0,1.0,91,0.00,,,-99.99,,2013-07-14 06:01:00,
2013-07-14 00:11:00,50.0,47.0,-100.00,NE,40,0.0,1.0,91,0.00,,,-99.99,,2013-07-14 06:11:00,
2013-07-14 00:42:00,48.0,46.0,-100.00,West,280,1.0,1.0,91,0.00,,,-99.99,,2013-07-14 06:42:00,
2013-07-14 01:02:00,49.0,46.0,-100.00,North,10,0.0,2.0,91,0.00,,,-99.99,,2013-07-14 07:02:00,
2013-07-14 01:12:00,49.0,46.0,-100.00,North,10,0.0,2.0,91,0.00,,,-99.99,,2013-07-14 07:12:00,
2013-07-14 01:33:00,49.0,46.0,-100.00,ENE,70,0.0,1.0,91,0.00,,,-99.99,,2013-07-14 07:33:00,
2013-07-14 01:43:00,49.0,46.0,-100.00,ENE,70,0.0,1.0,91,0.00,,,-99.99,,2013-07-14 07:43:00,
2013-07-14 01:53:00,49.0,46.0,-100.00,ENE,70,0.0,1.0,91,0.00,,,-99.99,,2013-07-14 07:53:00,
2013-07-14 02:01:00,49.0,46.0,-100.00,ENE,70,0.0,1.0,91,0.00,,,-99.99,,2013-07-14 08:01:00,
2013-07-14 03:22:00,47.0,45.0,-100.00,NW,315,0.0,0.0,91,0.00,,,-99.99,,2013-07-14 09:22:00,
2013-07-14 04:22:00,45.0,43.0,-100.00,South,190,0.0,2.0,91,0.00,,,-99.99,,2013-07-14 10:22:00,
2013-07-14 04:32:00,45.0,43.0,-100.00,South,190,0.0,2.0,91,0.00,,,-99.99,,2013-07-14 10:32:00,
2013-07-14 04:42:00,45.0,43.0,-100.00,South,190,0.0,2.0,91,0.00,,,-99.99,,2013-07-14 10:42:00,
2013-07-14 05:00:00,45.0,43.0,-100.00,SW,215,3.0,4.0,91,0.00,,,-99.99,,2013-07-14 11:00:00,
2013-07-14 05:02:00,45.0,43.0,-100.00,SSW,210,0.0,1.0,91,0.00,,,-99.99,,2013-07-14 11:02:00,
2013-07-14 05:32:00,45.0,43.0,-100.00,SW,215,3.0,4.0,91,0.00,,,-99.99,,2013-07-14 11:32:00,
2013-07-14 05:43:00,45.0,43.0,-100.00,SW,215,3.0,4.0,91,0.00,,,-99.99,,2013-07-14 11:43:00,
2013-07-14 05:53:00,45.0,43.0,-100.00,SW,215,3.0,4.0,91,0.00,,,-99.99,,2013-07-14 11:53:00,
2013-07-14 06:22:00,44.0,42.0,-100.00,North,5,0.0,2.0,91,0.00,,,-99.99,,2013-07-14 12:22:00,
2013-07-14 06:33:00,44.0,42.0,-100.00,North,5,0.0,2.0,91,0.00,,,-99.99,,2013-07-14 12:33:00,